TimePST,TemperatureF,Dew PointF,Humidity,Sea Level PressureIn,VisibilityMPH,Wind Direction,Wind SpeedMPH,Gust SpeedMPH,PrecipitationIn,Events,Conditions,WindDirDegrees,DateUTC
12:02 AM,32.0,28.4,87,30.21,0.5,Calm,Calm,-,N/A,Fog,Fog,0,2013-02-08 08:02:00
12:09 AM,30.2,28.4,93,30.21,1.0,Calm,Calm,-,N/A,,Mist,0,2013-02-08 08:09:00
12:11 AM,30.2,26.6,86,30.21,1.5,Calm,Calm,-,N/A,,Partly Cloudy,0,2013-02-08 08:11:00
12:17 AM,30.2,26.6,86,30.21,3.0,Calm,Calm,-,N/A,,Clear,0,2013-02-08 08:17:00
12:38 AM,30.2,26.6,86,30.21,2.5,Calm,Calm,-,N/A,,Scattered Clouds,0,2013-02-08 08:38:00
12:42 AM,32.0,28.4,87,30.22,1.0,Calm,Calm,-,N/A,,Mist,0,2013-02-08 08:42:00
12:47 AM,32.0,28.4,87,30.22,0.2,NE,3.5,-,N/A,Fog,Fog,40,2013-02-08 08:47:00
12:53 AM,32.0,28.0,85,30.22,0.2,Calm,Calm,-,N/A,Fog,Fog,0,2013-02-08 08:53:00
1:04 AM,32.0,28.4,87,30.22,0.5,Calm,Calm,-,N/A,Fog,Fog,0,2013-02-08 09:04:00
1:12 AM,32.0,28.4,87,30.22,0.5,East,3.5,-,N/A,Fog,Fog,100,2013-02-08 09:12:00
1:20 AM,32.0,28.4,87,30.22,0.2,Calm,Calm,-,N/A,Fog,Fog,0,2013-02-08 09:20:00
1:53 AM,30.9,28.0,89,30.24,0.2,Calm,Calm,-,N/A,Fog,Light Freezing Fog,0,2013-02-08 09:53:00
2:10 AM,30.2,26.6,86,30.24,0.5,Calm,Calm,-,N/A,Fog,Light Freezing Fog,0,2013-02-08 10:10:00
2:22 AM,30.2,26.6,86,30.24,1.8,Calm,Calm,-,N/A,,Mostly Cloudy,0,2013-02-08 10:22:00
2:24 AM,30.2,26.6,86,30.24,3.0,Calm,Calm,-,N/A,,Scattered Clouds,0,2013-02-08 10:24:00
2:53 AM,30.0,26.1,85,30.25,5.0,Calm,Calm,-,N/A,,Partly Cloudy,0,2013-02-08 10:53:00
3:38 AM,30.2,26.6,86,30.24,6.0,Calm,Calm,-,N/A,,Mostly Cloudy,0,2013-02-08 11:38:00
3:53 AM,32.0,28.9,88,30.24,6.0,East,6.9,-,N/A,,Overcast,90,2013-02-08 11:53:00
4:26 AM,32.0,28.4,87,30.25,6.0,NE,3.5,-,N/A,,Scattered Clouds,50,2013-02-08 12:26:00
4:33 AM,32.0,28.4,87,30.26,6.0,Calm,Calm,-,N/A,,Mostly Cloudy,0,2013-02-08 12:33:00
4:53 AM,32.0,28.0,85,30.27,6.0,Calm,Calm,-,N/A,,Mostly Cloudy,0,2013-02-08 12:53:00
5:53 AM,33.1,28.9,85,30.27,6.0,East,3.5,-,N/A,,Mostly Cloudy,90,2013-02-08 13:53:00
6:04 AM,33.8,28.4,81,30.26,6.0,Calm,Calm,-,N/A,,Partly Cloudy,0,2013-02-08 14:04:00
6:34 AM,30.2,28.4,93,30.27,2.0,Calm,Calm,-,N/A,,Clear,0,2013-02-08 14:34:00
6:41 AM,30.2,26.6,86,30.27,1.8,Calm,Calm,-,N/A,,Clear,0,2013-02-08 14:41:00
6:49 AM,30.2,26.6,86,30.27,1.2,Calm,Calm,-,N/A,,Clear,0,2013-02-08 14:49:00
6:53 AM,30.0,27.0,88,30.28,1.8,Calm,Calm,-,N/A,,Clear,0,2013-02-08 14:53:00
6:55 AM,30.2,26.6,86,30.27,3.0,Calm,Calm,-,N/A,,Clear,0,2013-02-08 14:55:00
7:53 AM,30.9,27.0,85,30.29,5.0,Calm,Calm,-,N/A,,Clear,0,2013-02-08 15:53:00
8:53 AM,33.1,30.0,89,30.31,5.0,Calm,Calm,-,N/A,,Partly Cloudy,0,2013-02-08 16:53:00
9:09 AM,33.8,30.2,87,30.30,5.0,Calm,Calm,-,N/A,,Mostly Cloudy,0,2013-02-08 17:09:00
9:53 AM,36.0,32.0,86,30.31,5.0,Calm,Calm,-,N/A,,Overcast,0,2013-02-08 17:53:00
10:24 AM,37.4,33.8,87,30.30,5.0,East,5.8,-,N/A,,Scattered Clouds,90,2013-02-08 18:24:00
10:53 AM,39.9,35.1,83,30.32,5.0,East,4.6,-,N/A,,Haze,80,2013-02-08 18:53:00
11:53 AM,45.0,39.0,80,30.31,5.0,ESE,3.5,-,N/A,,Haze,110,2013-02-08 19:53:00
12:28 PM,46.4,37.4,71,30.30,5.0,NNE,3.5,-,N/A,,Haze,20,2013-02-08 20:28:00
12:53 PM,46.0,37.9,73,30.30,5.0,NE,3.5,-,N/A,,Haze,40,2013-02-08 20:53:00
1:29 PM,46.4,39.2,76,30.29,5.0,NW,4.6,-,N/A,,Haze,320,2013-02-08 21:29:00
1:53 PM,48.0,39.9,74,30.30,5.0,NW,4.6,-,N/A,,Haze,320,2013-02-08 21:53:00
2:08 PM,48.2,39.2,71,30.29,5.0,Calm,Calm,-,N/A,,Haze,0,2013-02-08 22:08:00
2:53 PM,48.0,39.0,71,30.29,5.0,WNW,4.6,-,N/A,,Haze,300,2013-02-08 22:53:00
3:53 PM,46.9,37.9,71,30.29,5.0,NW,3.5,-,N/A,,Haze,320,2013-02-08 23:53:00
4:53 PM,46.0,37.9,73,30.29,5.0,NNW,3.5,-,N/A,,Haze,330,2013-02-09 00:53:00
5:53 PM,42.1,37.0,82,30.29,5.0,Calm,Calm,-,N/A,,Haze,0,2013-02-09 01:53:00
6:23 PM,39.2,37.4,93,30.28,2.0,Calm,Calm,-,N/A,,Mostly Cloudy,0,2013-02-09 02:23:00
6:33 PM,41.0,37.4,87,30.28,4.0,Calm,Calm,-,N/A,,Overcast,0,2013-02-09 02:33:00
6:53 PM,41.0,37.0,86,30.30,4.0,Calm,Calm,-,N/A,,Overcast,0,2013-02-09 02:53:00
7:21 PM,41.0,37.4,87,30.28,4.0,Calm,Calm,-,N/A,,Overcast,0,2013-02-09 03:21:00
7:28 PM,41.0,37.4,87,30.29,4.0,Calm,Calm,-,N/A,,Overcast,0,2013-02-09 03:28:00
7:53 PM,41.0,37.9,89,30.30,5.0,Calm,Calm,-,N/A,,Overcast,0,2013-02-09 03:53:00
8:53 PM,41.0,36.0,82,30.30,5.0,Calm,Calm,-,N/A,,Haze,0,2013-02-09 04:53:00
9:22 PM,39.2,35.6,87,30.29,2.0,Calm,Calm,-,N/A,,Mostly Cloudy,0,2013-02-09 05:22:00
9:42 PM,37.4,33.8,87,30.29,1.2,Calm,Calm,-,N/A,,Mostly Cloudy,0,2013-02-09 05:42:00
9:49 PM,37.4,35.6,93,30.28,1.5,Calm,Calm,-,N/A,,Mostly Cloudy,0,2013-02-09 05:49:00
9:53 PM,37.9,34.0,86,30.29,1.8,Calm,Calm,-,N/A,,Mostly Cloudy,0,2013-02-09 05:53:00
10:08 PM,39.2,35.6,87,30.29,3.0,Calm,Calm,-,N/A,,Overcast,0,2013-02-09 06:08:00
10:53 PM,39.9,36.0,86,30.29,4.0,Calm,Calm,-,N/A,,Overcast,0,2013-02-09 06:53:00
11:53 PM,39.9,37.0,89,30.29,4.0,Calm,Calm,-,N/A,,Overcast,0,2013-02-09 07:53:00